Weather History for Litchfield, MN

Change the Weather History Date:

Saturday, September 8, 2012

  Actual Average Record
Temperature  
Mean Temperature 60 °F -  
Max Temperature 75 °F 77 °F 97 °F (1978)
Min Temperature 44 °F 52 °F 38 °F (1992)
Degree Days  
Heating Degree Days 6    
Growing Degree Days 10 (Base 50)    
Moisture  
Dew Point 44 °F    
Average Humidity 62    
Maximum Humidity 100    
Minimum Humidity 23    
Precipitation  
Precipitation 0.00 in - - ()
Sea Level Pressure  
Sea Level Pressure 29.99 in    
Wind  
Wind Speed 8 mph (WNW)    
Max Wind Speed 26 mph    
Max Gust Speed 38 mph    
Visibility 10 miles    
Events      
Averages and records for this station are not official NWS values.
T = Trace of Precipitation, MM = Missing Value Source: NWS Daily Summary

Daily Weather History Graph

Daily Weather History Graph

Search for Another Location

Airport:

Trip Planner

Search our weather history database for the weather conditions in past years. The results will help you decide how hot, cold, wet, or windy it might be!

Date:

Astronomy

Sep. 08, 2012 Rise Set
Actual Time 6:48 AM CDT 7:41 PM CDT
Civil Twilight 6:19 AM CDT 8:11 PM CDT
Nautical Twilight 5:43 AM CDT 8:46 PM CDT
Astronomical Twilight 5:06 AM CDT 9:23 PM CDT
Moon No Moon Rise 2:51 PM CDT (9/8)
Length of Visible Light 13h 52m
Length of Day
12h 52m
Waning Gibbous, 48% of the Moon is Illuminated
Sep 8
Waning Gibbous
Sep 15
New
Sep 22
First Quarter
Sep 29
Full
Oct 8
Last Quarter

Hourly Weather History & Observations

Time (CDT) Temp. Windchill Dew Point Humidity Pressure Visibility Wind Dir Wind Speed Gust Speed Precip Events Conditions
12:13 AM 48.2 °F - 44.6 °F 87% 30.07 in 10.0 mi Calm Calm - N/A   Scattered Clouds
12:33 AM 48.2 °F - 46.4 °F 93% 30.06 in 10.0 mi West 4.6 mph - N/A   Unknown
12:53 AM 48.2 °F - 46.4 °F 93% 30.06 in 10.0 mi WNW 3.5 mph - N/A   Scattered Clouds
1:13 AM 50.0 °F - 46.4 °F 87% 30.06 in 10.0 mi WNW 5.8 mph - N/A   Scattered Clouds
1:33 AM 51.8 °F - 46.4 °F 82% 30.05 in 10.0 mi West 5.8 mph - N/A   Scattered Clouds
1:53 AM 50.0 °F - 44.6 °F 82% 30.05 in 10.0 mi West 3.5 mph - N/A   Scattered Clouds
2:13 AM 48.2 °F - 44.6 °F 87% 30.05 in 10.0 mi West 4.6 mph - N/A   Scattered Clouds
2:33 AM 50.0 °F - 46.4 °F 87% 30.05 in 10.0 mi West 4.6 mph - N/A   Scattered Clouds
2:53 AM 50.0 °F - 46.4 °F 87% 30.05 in 10.0 mi West 3.5 mph - N/A   Scattered Clouds
3:13 AM 48.2 °F - 46.4 °F 93% 30.05 in 10.0 mi WSW 5.8 mph - N/A   Clear
3:33 AM 48.2 °F - 46.4 °F 93% 30.05 in 10.0 mi WSW 3.5 mph - N/A   Scattered Clouds
3:53 AM 48.2 °F - 46.4 °F 93% 30.05 in 10.0 mi WSW 3.5 mph - N/A   Scattered Clouds
4:13 AM 48.2 °F - 46.4 °F 93% 30.05 in 10.0 mi WSW 3.5 mph - N/A   Clear
4:33 AM 46.4 °F 45.2 °F 44.6 °F 93% 30.05 in 10.0 mi WSW 3.5 mph - N/A   Scattered Clouds
4:53 AM 46.4 °F 44.3 °F 46.4 °F 100% 30.04 in 10.0 mi WSW 4.6 mph - N/A   Scattered Clouds
5:13 AM 46.4 °F 45.2 °F 44.6 °F 93% 30.03 in 10.0 mi SW 3.5 mph - N/A   Scattered Clouds
5:33 AM 46.4 °F 43.5 °F 44.6 °F 93% 30.02 in 10.0 mi WSW 5.8 mph - N/A   Clear
5:53 AM 46.4 °F 43.5 °F 44.6 °F 93% 30.02 in 10.0 mi WSW 5.8 mph - N/A   Clear
6:13 AM 46.4 °F 44.3 °F 44.6 °F 93% 30.02 in 10.0 mi WSW 4.6 mph - N/A   Clear
6:33 AM 46.4 °F 43.5 °F 44.6 °F 93% 30.02 in 10.0 mi WSW 5.8 mph - N/A   Clear
6:53 AM 44.6 °F 41.4 °F 44.6 °F 100% 30.02 in 10.0 mi WSW 5.8 mph - N/A   Clear
7:13 AM 44.6 °F 42.2 °F 44.6 °F 100% 30.01 in 10.0 mi WSW 4.6 mph - N/A   Clear
7:33 AM 46.4 °F - 44.6 °F 93% 30.01 in 10.0 mi Calm Calm - N/A   Clear
7:53 AM 48.2 °F - 46.4 °F 93% 30.01 in 10.0 mi WSW 4.6 mph - N/A   Clear
8:13 AM 51.8 °F - 50.0 °F 94% 30.01 in 10.0 mi WSW 3.5 mph - N/A   Clear
8:33 AM 55.4 °F - 51.8 °F 88% 30.00 in 10.0 mi WSW 5.8 mph - N/A   Clear
8:53 AM 57.2 °F - 50.0 °F 77% 29.99 in 10.0 mi WSW 8.1 mph - N/A   Clear
9:13 AM 60.8 °F - 48.2 °F 63% 29.98 in 10.0 mi WSW 6.9 mph - N/A   Clear
9:33 AM 59.0 °F - 48.2 °F 67% 29.97 in 10.0 mi WSW 8.1 mph - N/A   Clear
9:53 AM 62.6 °F - 46.4 °F 55% 29.96 in 10.0 mi West 10.4 mph - N/A   Scattered Clouds
10:13 AM 64.4 °F - 46.4 °F 52% 29.95 in 10.0 mi West 8.1 mph - N/A   Scattered Clouds
10:33 AM 66.2 °F - 44.6 °F 46% 29.94 in 10.0 mi West 12.7 mph 16.1 mph N/A   Clear
10:53 AM 66.2 °F - 44.6 °F 46% 29.93 in 10.0 mi West 10.4 mph - N/A   Clear
11:13 AM 69.8 °F - 44.6 °F 40% 29.92 in 10.0 mi West 9.2 mph 16.1 mph N/A   Clear
11:33 AM 69.8 °F - 44.6 °F 40% 29.90 in 10.0 mi West 11.5 mph 17.3 mph N/A   Clear
11:53 AM 71.6 °F - 44.6 °F 38% 29.90 in 10.0 mi WSW 11.5 mph 17.3 mph N/A   Scattered Clouds
12:13 PM 73.4 °F - 42.8 °F 33% 29.89 in 10.0 mi West 10.4 mph 19.6 mph N/A   Scattered Clouds
12:33 PM 73.4 °F - 44.6 °F 36% 29.88 in 10.0 mi West 12.7 mph 18.4 mph N/A   Clear
12:53 PM 73.4 °F - 42.8 °F 33% 29.87 in 10.0 mi West 15.0 mph 23.0 mph N/A   Scattered Clouds
1:13 PM 75.2 °F - 42.8 °F 31% 29.87 in 10.0 mi WNW 16.1 mph 21.9 mph N/A   Scattered Clouds
1:33 PM 75.2 °F - 42.8 °F 31% 29.87 in 10.0 mi WNW 17.3 mph 24.2 mph N/A   Scattered Clouds
1:53 PM 75.2 °F - 42.8 °F 31% 29.88 in 10.0 mi NW 17.3 mph 26.5 mph N/A   Scattered Clouds
2:12 PM 75.2 °F - 42.8 °F 31% 29.88 in 10.0 mi WNW 18.4 mph 29.9 mph N/A   Scattered Clouds
2:33 PM 73.4 °F - 44.6 °F 36% 29.88 in 10.0 mi NW 18.4 mph 29.9 mph N/A   Scattered Clouds
2:53 PM 73.4 °F - 44.6 °F 36% 29.88 in 10.0 mi WNW 13.8 mph 25.3 mph N/A   Clear
3:13 PM 73.4 °F - 42.8 °F 33% 29.89 in 10.0 mi NW 16.1 mph 32.2 mph N/A   Clear
3:33 PM 73.4 °F - 33.8 °F 23% 29.90 in 10.0 mi NNW 26.5 mph 35.7 mph N/A   Clear
3:53 PM 71.6 °F - 37.4 °F 29% 29.90 in 10.0 mi North 24.2 mph 35.7 mph N/A   Clear
4:13 PM 71.6 °F - 37.4 °F 29% 29.91 in 10.0 mi NNW 21.9 mph 31.1 mph N/A   Clear
4:33 PM 71.6 °F - 37.4 °F 29% 29.92 in 10.0 mi NW 23.0 mph 31.1 mph N/A   Clear
4:53 PM 69.8 °F - 37.4 °F 31% 29.92 in 10.0 mi NW 19.6 mph 38.0 mph N/A   Clear
5:13 PM 69.8 °F - 39.2 °F 33% 29.94 in 10.0 mi NNW 21.9 mph 32.2 mph N/A   Scattered Clouds
5:33 PM 69.8 °F - 39.2 °F 33% 29.95 in 10.0 mi NNW 24.2 mph 29.9 mph N/A   Overcast
5:53 PM 68.0 °F - 39.2 °F 35% 29.96 in 10.0 mi NNW 13.8 mph 24.2 mph N/A   Mostly Cloudy
6:13 PM 66.2 °F - 41.0 °F 40% 29.97 in 10.0 mi NNW 19.6 mph 31.1 mph N/A   Mostly Cloudy
6:33 PM 66.2 °F - 41.0 °F 40% 29.98 in 10.0 mi NNW 16.1 mph 25.3 mph N/A   Overcast
6:53 PM 64.4 °F - 42.8 °F 45% 29.99 in 10.0 mi NNW 15.0 mph 24.2 mph N/A   Overcast
7:13 PM 64.4 °F - 42.8 °F 45% 29.99 in 10.0 mi NNW 12.7 mph - N/A   Overcast
7:33 PM 62.6 °F - 42.8 °F 48% 30.00 in 10.0 mi NNW 12.7 mph 21.9 mph N/A   Overcast
7:53 PM 62.6 °F - 42.8 °F 48% 30.01 in 10.0 mi NNW 16.1 mph 24.2 mph N/A   Overcast
8:13 PM 62.6 °F - 42.8 °F 48% 30.02 in 10.0 mi NNW 13.8 mph 23.0 mph N/A   Overcast
8:33 PM 62.6 °F - 44.6 °F 52% 30.03 in 10.0 mi NNW 17.3 mph - N/A   Overcast
8:53 PM 62.6 °F - 44.6 °F 52% 30.04 in 10.0 mi NNW 16.1 mph 21.9 mph N/A   Overcast
9:13 PM 60.8 °F - 44.6 °F 55% 30.04 in 10.0 mi North 16.1 mph 20.7 mph N/A   Overcast
9:33 PM 60.8 °F - 44.6 °F 55% 30.05 in 10.0 mi NNW 16.1 mph - N/A   Overcast
10:13 PM 60.8 °F - 44.6 °F 55% 30.06 in 10.0 mi NNW 11.5 mph - N/A   Mostly Cloudy
10:33 PM 59.0 °F - 44.6 °F 59% 30.07 in 10.0 mi NNW 12.7 mph 20.7 mph N/A   Scattered Clouds
10:53 PM 59.0 °F - 46.4 °F 63% 30.07 in 10.0 mi NNW 11.5 mph - N/A   Overcast
11:13 PM 59.0 °F - 46.4 °F 63% 30.08 in 10.0 mi NNW 8.1 mph - N/A   Mostly Cloudy
11:37 PM 55.4 °F - 46.4 °F 72% 30.08 in 10.0 mi NNW 9.2 mph - N/A   Scattered Clouds
11:53 PM 55.4 °F - 46.4 °F 72% 30.08 in 10.0 mi NNW 8.1 mph - N/A   Scattered Clouds